Wind_Speed
15 16 17 17 17 19 19 19 19 19 20 20 22 21 21 22 23 24 26 28 29 31 34 35 35 36 36 35 35 35 36 37 39 39 40 40 39 39 39 39 39 40 39 38
16 16 17 18 18 19 19 19 20 21 21 22 22 22 22 22 23 24 25 27 28 29 31 33 34 35 36 36 35 36 36 37 38 39 39 39 40 39 39 39 39 39 39 39
18 18 18 18 19 18 19 20 21 22 21 22 22 22 22 22 23 23 24 26 27 28 29 31 33 34 35 35 35 36 36 37 37 38 38 38 39 39 39 39 39 39 39 38
18 18 19 18 19 19 19 19 21 21 22 22 23 23 23 23 23 23 24 26 27 28 29 30 32 33 34 35 35 36 36 36 37 37 38 38 38 38 39 39 39 39 38 38
18 20 20 19 20 20 20 20 20 21 22 23 23 23 24 24 24 24 24 26 28 29 29 30 31 33 34 35 35 35 36 36 36 36 37 37 38 38 38 38 39 39 38 38
19 19 20 20 20 20 21 21 22 22 22 22 23 24 24 25 25 24 25 26 27 28 29 30 30 32 33 34 34 35 35 35 35 36 37 37 37 37 37 38 38 38 38 38
20 20 20 20 20 21 21 21 21 22 23 23 23 24 24 25 25 25 25 25 26 27 28 29 29 30 31 33 33 34 34 35 34 35 35 36 36 37 37 37 38 38 38 37
21 22 21 21 20 21 21 21 22 22 22 23 23 24 24 25 25 25 25 25 26 27 27 28 28 29 29 31 31 32 33 34 34 33 33 34 35 35 36 36 36 37 37 37
22 22 22 21 21 22 22 22 23 23 23 24 24 24 25 25 26 26 26 26 26 27 27 27 28 28 28 29 29 30 31 32 32 32 32 33 33 33 34 35 35 35 36 36
23 22 22 22 22 22 23 23 23 23 24 25 25 26 26 26 26 27 27 27 27 27 27 28 28 28 28 29 29 29 30 30 31 31 32 32 32 32 33 33 33 34 35 35
22 22 23 23 23 23 23 23 23 24 24 25 26 27 27 27 26 27 27 27 27 27 27 27 28 28 29 29 29 29 30 31 31 31 32 32 33 33 33 33 33 33 33 34
23 22 23 23 24 24 24 24 24 25 25 25 26 27 27 28 28 28 28 27 28 28 28 28 28 28 29 29 29 30 30 30 31 32 32 33 33 33 33 33 33 33 33 33
24 23 23 23 23 23 24 24 25 25 25 26 26 27 27 28 28 29 29 29 29 29 29 29 29 29 29 29 29 29 30 30 31 31 31 31 32 32 33 33 33 33 33 32
24 23 23 23 23 23 23 23 24 25 25 26 26 27 28 28 28 29 29 29 30 30 30 30 30 30 30 30 30 30 30 30 30 30 30 31 31 31 31 32 32 32 32 32
23 23 23 23 23 23 23 23 24 25 25 26 26 27 27 28 28 29 29 29 30 30 31 31 30 31 31 31 31 31 30 30 30 30 30 30 30 30 30 30 30 31 31 31
23 23 23 23 23 22 22 23 23 24 25 25 26 26 27 27 27 28 28 29 30 30 31 31 31 31 31 31 31 31 30 30 29 29 29 29 29 29 29 29 29 29 30 30
23 23 23 24 24 23 23 24 24 24 25 25 25 25 26 26 26 27 27 28 29 30 30 31 31 32 31 31 31 32 31 30 30 29 29 29 28 28 28 28 29 29 29 30
23 23 23 24 24 24 25 25 25 25 25 25 25 25 25 25 26 26 27 27 27 28 29 29 30 30 30 30 31 32 31 31 30 30 30 29 28 28 27 27 27 27 28 28
23 23 24 24 24 25 25 25 25 25 24 24 24 25 25 26 26 26 27 27 27 27 28 28 28 29 29 29 29 30 30 30 30 29 29 29 28 28 27 27 26 26 26 26
23 23 24 24 25 25 25 25 24 24 24 24 24 24 25 25 25 25 25 25 26 26 27 27 28 28 28 28 28 28 28 28 28 28 28 27 27 27 26 26 26 25 25 25
24 24 24 25 25 25 25 24 24 24 24 24 24 24 24 25 25 24 24 24 25 25 25 26 26 27 27 27 27 27 27 27 27 27 27 27 27 26 26 26 25 25 25 25
25 25 25 25 25 25 25 25 24 24 24 24 24 24 24 24 24 24 24 23 23 23 23 24 24 25 26 26 26 26 26 26 26 26 26 27 27 26 26 25 25 25 25 25
25 26 26 26 25 25 25 25 25 25 24 24 24 24 23 23 23 23 23 23 22 22 22 22 22 23 23 24 25 25 26 26 26 25 25 26 26 25 25 25 25 24 24 24
26 26 26 26 25 25 25 25 25 25 25 24 24 23 23 23 22 23 22 22 22 22 21 21 21 21 22 22 23 24 25 25 25 25 25 25 25 25 25 25 25 24 24 24
25 25 25 25 25 25 24 24 24 24 24 23 23 22 22 22 22 22 22 21 21 22 22 21 21 21 21 21 22 22 23 24 25 25 25 25 25 25 25 25 25 25 24 24
24 24 24 25 24 24 24 24 23 23 22 22 23 22 22 22 21 21 21 21 21 21 22 22 22 22 21 21 21 22 22 23 24 24 25 26 26 26 26 25 25 25 24 24
24 25 25 25 24 24 23 23 22 22 22 22 22 22 22 21 20 19 19 19 19 20 20 21 21 22 22 21 21 22 22 23 23 24 25 25 26 26 26 26 26 25 25 24
Wind_Direction
281 270 264 263 264 262 260 258 256 256 254 254 255 255 256 254 253 250 248 246 246 244 241 241 241 242 243 245 247 247 248 249 249 250 250 251 253 254 255 255 256 257 258 260
284 277 268 268 268 267 264 260 259 257 254 254 255 256 256 257 256 254 251 248 247 247 244 243 243 244 245 246 248 248 249 250 250 250 252 253 254 255 255 255 255 256 257 259
287 282 275 269 268 266 265 262 260 259 255 253 254 258 259 261 261 258 253 251 248 248 247 246 246 246 246 247 249 249 249 250 250 251 252 254 255 255 255 255 256 257 257 259
288 282 278 276 271 267 266 266 264 262 259 257 258 259 261 263 264 263 259 255 251 250 249 248 249 249 250 250 250 251 251 251 252 253 253 254 256 257 256 256 256 256 257 258
291 285 281 278 275 270 268 267 266 266 263 260 259 261 262 262 264 264 263 260 255 252 251 250 251 251 251 251 251 251 252 253 253 254 254 254 256 257 257 256 256 256 257 258
292 288 286 283 278 272 270 266 265 264 262 261 261 261 262 262 263 263 262 260 256 253 252 252 251 251 251 251 252 252 252 253 254 255 255 255 256 256 256 256 256 256 256 256
289 287 286 285 281 275 270 271 268 265 263 262 261 263 263 263 262 263 263 262 258 255 253 252 252 252 252 252 253 253 253 254 254 255 256 256 256 256 256 257 257 257 256 256
284 284 287 284 281 277 275 273 271 267 265 265 265 265 265 263 262 263 264 264 262 258 255 253 252 252 252 253 253 254 254 254 254 255 256 256 256 256 255 256 257 256 256 256
282 283 283 282 280 278 276 275 272 268 266 267 267 266 265 264 263 263 264 264 262 261 258 256 255 254 253 254 256 256 254 254 254 254 254 254 255 255 256 256 256 254 254 253
281 280 280 280 280 280 278 275 273 270 268 267 267 266 265 264 264 264 265 265 263 262 260 258 258 257 257 258 257 255 254 254 254 253 254 255 255 255 256 256 256 255 254 253
281 279 278 278 279 279 278 277 275 273 270 269 268 266 265 264 264 264 264 264 263 263 261 259 259 259 260 260 259 257 257 256 254 254 254 254 256 256 256 257 257 255 255 254
281 280 279 279 279 278 276 276 275 274 273 270 269 267 265 265 264 264 264 264 263 262 261 260 260 260 261 262 262 260 258 258 256 256 255 254 255 256 256 256 257 256 256 255
280 279 279 280 280 279 277 275 275 275 274 271 270 268 267 265 265 264 264 264 263 262 261 261 261 260 261 261 262 261 259 259 259 259 258 257 257 257 257 257 257 257 257 256
279 279 279 279 279 278 276 275 274 274 273 272 271 268 267 267 265 264 264 264 263 262 261 261 260 260 260 260 261 262 261 261 261 260 260 259 259 259 259 257 256 256 255 255
281 279 279 279 279 279 278 278 277 276 275 274 272 270 269 268 266 264 264 264 263 262 261 261 260 260 260 260 261 261 261 260 261 261 261 260 260 261 260 257 256 256 254 254
281 280 279 279 279 279 281 281 281 280 278 276 274 272 271 270 268 266 266 265 264 263 261 261 261 261 261 261 261 260 260 260 260 259 259 259 260 261 259 257 257 256 254 254
280 281 280 278 278 279 281 283 282 282 280 278 275 274 273 272 269 268 268 268 266 263 262 262 262 262 261 261 261 261 261 260 259 258 258 259 260 260 260 259 257 256 254 255
281 280 280 280 279 279 281 283 282 282 280 278 275 275 275 273 271 269 269 268 267 264 262 262 262 262 261 261 260 259 259 258 258 258 257 257 258 259 258 258 258 257 255 255
284 282 281 281 280 280 282 284 283 282 280 279 277 276 276 275 274 272 270 268 267 265 263 262 261 261 260 261 260 259 257 256 256 255 255 255 255 256 256 257 257 257 255 254
287 285 283 283 282 282 283 283 283 282 281 281 280 279 278 277 276 274 272 270 269 266 263 262 261 260 260 260 259 258 256 255 253 252 251 252 254 255 255 256 255 254 254 254
288 287 286 285 284 284 284 283 283 282 282 281 281 280 279 279 278 276 274 272 271 268 264 262 260 259 259 259 259 257 255 253 252 250 250 251 253 254 254 254 254 253 253 255
290 289 288 287 285 285 284 283 283 282 281 281 281 280 280 279 278 276 275 273 272 269 266 263 260 259 258 258 257 256 254 251 251 250 249 250 252 252 252 253 253 253 253 253
292 291 289 287 286 285 284 284 283 282 281 281 280 280 279 279 277 276 274 273 271 269 267 264 262 260 259 258 256 254 252 251 250 250 250 250 250 250 250 251 252 253 253 252
295 293 290 288 287 287 286 285 283 282 281 281 280 279 279 279 278 276 274 272 270 269 267 263 261 261 260 259 257 254 252 251 251 251 250 249 248 248 249 249 250 251 252 252
296 294 293 292 291 290 290 287 284 282 280 279 279 278 279 279 279 278 275 272 270 267 266 264 262 261 261 260 259 256 254 252 252 250 248 248 247 248 249 249 249 250 251 250
296 296 296 295 293 292 291 289 286 283 280 279 278 278 279 280 280 279 276 273 270 267 264 263 262 261 261 261 259 258 256 255 253 251 249 248 248 247 248 248 249 248 248 248
297 297 297 296 294 293 292 291 288 284 281 279 278 278 277 277 277 277 276 275 272 268 264 263 262 261 261 260 259 259 258 255 254 253 251 250 248 247 247 247 247 246 246 245
Height
5614 5613 5613 5613 5613 5613 5613 5614 5615 5617 5617 5618 5618 5619 5620 5621 5622 5623 5624 5626 5627 5629 5632 5634 5637 5639 5642 5644 5646 5649 5651 5653 5655 5657 5659 5661 5663 5665 5666 5668 5670 5671 5672 5673
5610 5609 5609 5609 5609 5608 5608 5609 5609 5610 5612 5612 5612 5613 5614 5615 5615 5616 5617 5618 5620 5621 5623 5626 5628 5630 5633 5635 5637 5639 5641 5643 5645 5647 5649 5651 5653 5655 5656 5658 5659 5660 5662 5663
5606 5605 5604 5604 5604 5604 5604 5604 5604 5604 5606 5606 5606 5607 5608 5608 5609 5609 5610 5611 5612 5614 5615 5617 5619 5622 5624 5626 5628 5630 5632 5634 5636 5637 5639 5641 5642 5644 5646 5647 5649 5650 5651 5653
5600 5600 5599 5602 5599 5598 5598 5598 5598 5599 5599 5600 5600 5601 5601 5602 5602 5602 5603 5604 5605 5606 5607 5609 5611 5613 5614 5617 5619 5620 5622 5624 5626 5627 5629 5631 5632 5634 5635 5637 5638 5640 5641 5643
5594 5593 5593 5595 5593 5592 5593 5593 5593 5593 5593 5593 5593 5594 5595 5595 5595 5595 5596 5596 5597 5598 5599 5600 5602 5604 5605 5607 5609 5611 5613 5614 5616 5617 5619 5620 5622 5623 5625 5626 5628 5629 5631 5632
5589 5587 5587 5589 5587 5586 5587 5587 5587 5587 5586 5586 5587 5587 5588 5587 5587 5588 5588 5588 5589 5590 5591 5592 5593 5595 5596 5598 5599 5601 5603 5604 5606 5607 5609 5610 5612 5613 5614 5616 5617 5619 5621 5622
5583 5581 5581 5582 5581 5580 5581 5582 5580 5579 5579 5580 5580 5580 5581 5580 5580 5580 5580 5580 5581 5581 5582 5583 5584 5586 5587 5589 5590 5591 5593 5595 5596 5597 5599 5600 5601 5603 5604 5605 5607 5609 5610 5612
5577 5575 5578 5575 5574 5574 5575 5574 5573 5572 5572 5572 5572 5572 5572 5572 5572 5572 5572 5572 5572 5573 5574 5575 5576 5577 5578 5580 5581 5582 5583 5585 5586 5587 5589 5590 5591 5592 5593 5595 5596 5598 5599 5601
5572 5572 5570 5568 5568 5567 5567 5566 5566 5565 5565 5565 5565 5565 5564 5564 5564 5564 5564 5564 5564 5565 5565 5566 5567 5568 5570 5571 5572 5573 5574 5575 5577 5578 5579 5580 5581 5582 5583 5584 5586 5587 5589 5591
5564 5564 5563 5561 5560 5560 5559 5559 5558 5558 5557 5557 5557 5557 5557 5556 5556 5556 5556 5556 5556 5557 5557 5558 5559 5560 5561 5562 5563 5564 5565 5566 5567 5568 5569 5570 5571 5572 5574 5574 5576 5577 5578 5580
5557 5557 5556 5555 5554 5553 5552 5551 5550 5550 5549 5549 5549 5549 5549 5548 5548 5548 5548 5548 5549 5549 5549 5550 5551 5552 5552 5553 5554 5555 5556 5556 5557 5558 5559 5560 5562 5563 5564 5565 5566 5567 5568 5570
5550 5550 5548 5548 5546 5545 5545 5544 5543 5542 5542 5541 5541 5541 5540 5540 5540 5540 5540 5540 5540 5541 5541 5542 5543 5543 5544 5545 5545 5546 5546 5547 5548 5549 5550 5551 5552 5553 5554 5555 5556 5557 5559 5560
5543 5542 5540 5540 5538 5537 5536 5536 5535 5534 5534 5533 5533 5532 5532 5532 5531 5531 5531 5531 5532 5532 5533 5533 5534 5535 5535 5536 5536 5537 5538 5538 5539 5539 5540 5541 5543 5544 5545 5546 5547 5548 5549 5550
5535 5534 5533 5532 5531 5530 5529 5527 5527 5526 5525 5525 5524 5524 5523 5523 5523 5522 5522 5523 5523 5523 5524 5524 5525 5526 5526 5527 5527 5528 5528 5529 5530 5530 5531 5532 5533 5534 5535 5536 5537 5538 5539 5541
5527 5526 5525 5524 5523 5522 5521 5520 5519 5518 5517 5516 5515 5515 5514 5514 5514 5513 5513 5513 5514 5514 5514 5515 5515 5516 5517 5517 5518 5519 5519 5520 5521 5521 5522 5523 5524 5525 5525 5526 5527 5528 5530 5531
5519 5518 5517 5516 5515 5514 5513 5512 5511 5510 5509 5508 5507 5506 5505 5505 5504 5504 5504 5504 5504 5504 5504 5505 5506 5506 5507 5508 5508 5509 5510 5510 5511 5512 5513 5514 5515 5515 5516 5517 5518 5519 5520 5522
5511 5510 5509 5509 5507 5506 5505 5504 5503 5502 5500 5499 5498 5498 5497 5496 5495 5495 5495 5494 5494 5494 5494 5495 5495 5496 5497 5498 5498 5499 5500 5501 5502 5503 5504 5505 5506 5506 5507 5508 5509 5510 5511 5512
5503 5502 5501 5500 5499 5498 5497 5496 5495 5493 5492 5491 5490 5489 5488 5487 5487 5486 5485 5485 5485 5484 5484 5485 5485 5486 5486 5487 5488 5489 5490 5491 5492 5493 5494 5495 5496 5497 5498 5499 5500 5501 5502 5503
5495 5494 5493 5492 5491 5490 5489 5487 5486 5485 5483 5482 5481 5480 5479 5478 5478 5477 5476 5476 5475 5475 5475 5475 5476 5476 5477 5477 5478 5479 5480 5481 5482 5483 5485 5486 5487 5488 5489 5490 5491 5492 5493 5494
5488 5487 5485 5484 5483 5482 5480 5479 5477 5476 5475 5474 5473 5472 5470 5469 5469 5468 5467 5466 5466 5465 5465 5466 5466 5466 5467 5468 5468 5469 5470 5471 5473 5474 5475 5477 5478 5479 5481 5482 5483 5484 5485 5486
5480 5479 5477 5476 5474 5473 5472 5470 5469 5468 5466 5465 5464 5463 5462 5461 5460 5459 5458 5458 5457 5456 5456 5456 5456 5457 5457 5458 5459 5460 5461 5462 5463 5465 5466 5468 5469 5471 5472 5473 5475 5476 5477 5478
5472 5471 5469 5467 5466 5464 5463 5462 5460 5459 5458 5456 5455 5454 5453 5452 5451 5450 5449 5449 5448 5447 5447 5447 5447 5447 5448 5449 5449 5450 5451 5453 5454 5456 5457 5459 5461 5462 5464 5465 5467 5468 5469 5470
5464 5462 5460 5459 5457 5456 5454 5453 5451 5450 5449 5448 5447 5446 5445 5444 5442 5442 5441 5440 5439 5439 5439 5439 5439 5439 5439 5440 5441 5442 5443 5444 5446 5447 5449 5450 5452 5454 5456 5457 5459 5460 5461 5462
5456 5454 5452 5450 5448 5447 5445 5444 5442 5441 5440 5439 5438 5437 5436 5435 5434 5433 5432 5432 5431 5431 5431 5431 5431 5431 5431 5432 5432 5433 5435 5436 5437 5439 5440 5442 5444 5446 5447 5449 5451 5452 5453 5455
5448 5445 5443 5442 5440 5438 5436 5435 5433 5432 5431 5430 5429 5428 5427 5427 5426 5425 5424 5423 5423 5423 5423 5423 5423 5423 5424 5424 5425 5425 5426 5427 5429 5430 5432 5433 5435 5437 5439 5441 5443 5444 5446 5448
5440 5438 5435 5433 5431 5430 5428 5426 5425 5423 5422 5422 5421 5420 5419 5418 5417 5416 5416 5415 5414 5414 5414 5415 5415 5415 5416 5416 5417 5417 5418 5419 5420 5422 5423 5425 5427 5429 5431 5433 5434 5436 5438 5440
5432 5430 5428 5425 5423 5421 5420 5418 5416 5415 5414 5413 5413 5412 5411 5410 5409 5409 5408 5407 5407 5406 5406 5407 5407 5407 5408 5408 5409 5410 5410 5411 5412 5413 5415 5416 5418 5420 5422 5424 5426 5428 5430 5432